Location: Observatory
(52.1446°N, 0.4624°W)
Time: 18:46:53
(UTC+00:00)

ISS - Pass Details

Date: 02 December 2021
Orbit: 417 x 422 km, 51.6° (Epoch: 06 December)

Event Time Altitude Azimuth Distance (km) Brightness Sun altitude
Rises 16:53:38 0° 273° (W) 2,378 1.3 -8.9°
Reaches altitude 10° 16:55:44 10° 272° (W) 1,512 0.2 -9.2°
Maximum altitude 16:59:08 82° 187° (S) 433 -3.7 -9.7°
Enters shadow 17:02:21 11° 99° (E) 1,436 -1.6 -10.1°
